Tracking 31023 objects as of 19-Jul-2025
HD Live streaming from Space Station
objects crossing your sky now

ATLAS CENTAUR R/B

Track ATLAS CENTAUR R/B now!


NORAD ID: 9329
Int'l Code: 1976-073B
Perigee: 565.6 km
Apogee: 36,066.9 km
Inclination: 22.0 °
Period: 643.4 minutes
Semi major axis: 24687 km
RCS: 17.0572 m2 (large)
Launch date: July 22, 1976
Source: United States (US)
Launch site: AIR FORCE EASTERN TEST RANGE (AFETR)

Note: This is a ROCKET BODY
Your satellite tracking list
Your tracking list is empty




NASA's NSSDC Master Catalog

Two Line Element Set (TLE):
1 09329U 76073B   25199.69897461 -.00000145  00000-0  16728-3 0  9990
2 09329  21.9750 292.4008 7190195 153.3923 276.7344  2.23816980269214
Source of the keplerian elements: AFSPC